Weather in Kablukovo

Russia / Yaroslavl Oblast     57°15′38″N   38°30′20″E
В апреле 2022 года жителям России запретили посещать сайт meteo.paraplan.net по решению Генеральной прокуратуры. Аудитория сайта уменьшилась в 10 раз. Владельцы сайта не видят смысла в поддержке погодного сервера в таких условиях. Сайт будет закрыт в октябре.
temp.,
°C
wind,
m/s
gust,
m/s
humid.,
%
clouds,
%
prec.,
mm/h
press.,
hPa
HPBL,
m
4 october, tue
tue400:00+10sse7167962 0.1 10041506
03:00+10sse61484100 0.2 10051188
06:00+10se61583100 0.0 10061313
09:00+10se61482100 0.0 10071408
12:00+11sse61569100 0.1 10081845
15:00+12sse71570100 0.4 10081842
18:00+9s3886100 0.3 1009621
21:00+8s51186100 3.2 1009869
5 october, wed
wed500:00+7sse3989100 1.1 1008777
03:00+6s4987100 1.4 1009814
06:00+6s2593100 0.4 1009966
09:00+6wsw1394100 1.3 1009294
12:00+6ssw248799 0.2 1010754
15:00+7w2383100 0.3 1011550
18:00+6w249081 0.3 1013319
21:00+5w259579 0.3 1013185
6 october, thu
thu600:00+5w259497 0.0 1014253
03:00+5w259623 0.1 1015190
06:00+4wnw269872 0.0 1016177
09:00+6w35885 0.0 1017304
12:00+9wsw34705 0.0 1017758
15:00+10sw35651 0.0 1016899
18:00+7ssw288790 0.0 1016192
21:00+9ssw4129063 0.0 1015439
7 october, fri
fri700:00+9sw41297100 0.0 1013454
03:00+9sw41397100 0.0 1012519
06:00+10w411895 0.7 1013711
09:00+9wnw61281100 0.7 10161099
12:00+11w5117833 0.1 10171158
15:00+11w5117764 0.2 10191075
18:00+9w412831 0.1 1020638
21:00+8wsw413890 0.1 1022490
8 october, sat
sat800:00+7wsw311945 0.0 1022371
03:00+6sw3109626 0.0 1022294
06:00+6sw3119768 0.0 1022312
09:00+8sw41190100 0.0 1022373
12:00+11sw51074100 0.0 1021638
15:00+12sw51070100 0.0 1019969
18:00+10ssw51376100 0.0 1018678
21:00+10ssw61582100 0.0 1016752